Flag for U.S.A. Weather past 2 weeks in Wailuku, Hawaii, U.S.A.

Now
90 °F

Sunny.


Feels Like: 95 °F
Forecast: 76 / 89 °F
Wind: 24 mph from Northeast

Location: Kahului Airport

Current Time: Sep 22, 2014 at 1:08:08 PM

Latest Report: Sep 22, 2014 at 11:54 AM


Visibility: 10 mi

Pressure: 30.03 "Hg

Humidity: 52%

Dew point: 70 °F

Location of WailukuLocation

Historic Weather in Wailuku — Graph

°F

Wailuku temperature yesterday

Maximum temperature yesterday: 91 °F (at 11:54 AM)
Minimum temperature yesterday: 74 °F (at 5:54 AM)
Average temperature yesterday: 82 °F

Past Weeks' High & Low Weather Summary

 TemperatureHumidityPressure
High93 °F (Sep 20, 12:54 PM)94% (Sep 15, 2:34 AM)30.05 "Hg (Sep 15, 2:34 AM)
Low67 °F (Sep 9, 3:54 AM)42% (Sep 9, 11:54 AM)29.88 "Hg (Sep 19, 2:54 PM)
Average80 °F70%29.97 "Hg
* Reported Sep 7 11:54 AM — Sep 22 11:54 AM, Wailuku, Weather by CustomWeather, © 2014

Note: Actual official high and low records may vary slightly from our data, if they occured in-between our weather recording intervals... More about our weather records

Advertising

Wailuku weather history for previous 24 hours

 ConditionsComfort  
Time TempWeatherWind HumidityBarometerVisibility
11:54 AM
Sep 22
90 °FSunny.24 mph52%30.03 "Hg10 mi
10:54 AM89 °FPassing clouds.25 mph55%30.05 "Hg10 mi
9:54 AM89 °FPassing clouds.21 mph52%30.05 "Hg10 mi
8:54 AM86 °FPassing clouds.15 mph55%30.04 "Hg10 mi
7:54 AM82 °FPassing clouds.9 mph67%30.04 "Hg10 mi
6:54 AM75 °FPassing clouds.5 mph79%30.03 "Hg10 mi
5:54 AM70 °FClear.3 mph87%30.03 "Hg9 mi
4:54 AM78 °FClear.12 mph79%30.01 "Hg10 mi
3:54 AM72 °FPartly cloudy.9 mph84%30.00 "Hg5 mi
2:54 AM72 °FClear.3 mph84%30.01 "Hg10 mi
1:54 AM74 °FClear.5 mph82%30.01 "Hg10 mi
12:54 AM73 °FClear.3 mph88%30.02 "Hg10 mi
11:54 PM
Sep 21
75 °FClear.6 mph82%30.03 "Hg10 mi
10:54 PM77 °FClear.No wind79%30.03 "Hg10 mi
9:54 PM77 °FClear.5 mph79%30.03 "Hg10 mi
8:54 PM79 °FClear.5 mph72%30.02 "Hg10 mi
7:54 PM80 °FPassing clouds.7 mph69%30.00 "Hg10 mi
6:54 PM82 °FPassing clouds.12 mph65%29.97 "Hg10 mi
5:54 PM84 °FScattered clouds.15 mph65%29.95 "Hg10 mi
4:54 PM88 °FScattered clouds.16 mph59%29.92 "Hg10 mi
3:54 PM90 °FScattered clouds.16 mph56%29.92 "Hg10 mi
2:54 PM91 °FScattered clouds.13 mph54%29.92 "Hg10 mi
1:54 PM91 °FScattered clouds.13 mph56%29.93 "Hg10 mi
Weather by CustomWeather, © 2014

See weather overviewHow to use our weather pages